Simultaneous Nadir Overpasses (SNOs) Predictions

Prediction of SNOs between AQUA and NOAA-19 Satellite Orbit:

Table of predicted SNOs for the next 14.0 days since TLE Epoch: 10/3/2020
Index Date (AQUA) Time (AQUA) Lat,Lon (AQUA) SZA (AQUA ) Date (NOAA-19) Time (NOAA-19) Lat,Lon (NOAA-19) SZA (NOAA-19 ) Distance(km) Time Diff (sec)
1 10/03/2020 11:07:12 -79.51, 166.40 95.40 10/03/2020 11:07:14 -79.48, 166.34 95.43 3.54 2
2 10/05/2020 16:40:53 79.47, -96.74 85.38 10/05/2020 16:40:30 79.50, -96.69 85.42 3.77 23
3 10/05/2020 17:30:21 -79.52, 70.56 94.54 10/05/2020 17:31:28 -79.49, 70.52 94.57 2.52 67
4 10/07/2020 22:14:37 -79.49, -0.33 93.75 10/07/2020 22:13:44 -79.47, -0.24 93.76 3.10 53
5 10/07/2020 23:04:03 79.48, 167.38 86.25 10/07/2020 23:04:45 79.50, 167.32 86.26 2.50 42
6 10/10/2020 03:48:14 79.26, 97.74 86.77 10/10/2020 03:47:09 79.21, 94.18 87.02 74.14 65
7 10/10/2020 04:37:46 -79.46, -95.94 92.94 10/10/2020 04:37:59 -79.48, -96.07 92.92 3.22 13
8 10/12/2020 10:11:29 79.47, 0.55 87.91 10/12/2020 10:11:15 79.48, 0.67 87.91 2.48 14
9 10/12/2020 11:01:00 -79.63, 167.10 91.86 10/12/2020 11:02:07 -79.69, 170.10 92.03 60.29 67
10 10/14/2020 15:45:12 -79.46, 97.20 91.30 10/14/2020 15:44:30 -79.46, 97.32 91.29 2.37 42
11 10/14/2020 16:34:39 79.50, -95.39 88.77 10/14/2020 16:35:30 79.47, -95.35 88.73 2.72 51
12 10/16/2020 21:18:54 79.44,-166.11 89.50 10/16/2020 21:17:45 79.45,-166.02 89.52 1.95 69
